TimeCST,TemperatureF,Dew PointF,Humidity,Sea Level PressureIn,VisibilityMPH,Wind Direction,Wind SpeedMPH,Gust SpeedMPH,PrecipitationIn,Events,Conditions,WindDirDegrees,DateUTC
12:15 AM,23.5,18.9,82,29.89,10.0,Calm,Calm,-,N/A,,Clear,0,2012-01-27 06:15:00
12:35 AM,24.1,19.0,81,29.90,10.0,Calm,Calm,-,N/A,,Scattered Clouds,0,2012-01-27 06:35:00
12:55 AM,24.4,19.4,81,29.89,10.0,Calm,Calm,-,N/A,,Mostly Cloudy,0,2012-01-27 06:55:00
1:15 AM,25.0,19.9,81,29.88,10.0,Calm,Calm,-,N/A,,Overcast,0,2012-01-27 07:15:00
1:35 AM,25.9,21.0,82,29.89,10.0,Calm,Calm,-,N/A,,Overcast,0,2012-01-27 07:35:00
1:55 AM,26.6,22.1,83,29.89,10.0,Calm,Calm,-,N/A,,Overcast,0,2012-01-27 07:55:00
2:15 AM,27.1,22.1,81,29.89,10.0,Calm,Calm,-,N/A,,Overcast,0,2012-01-27 08:15:00
2:35 AM,28.2,23.0,81,29.89,10.0,Calm,Calm,-,N/A,,Overcast,0,2012-01-27 08:35:00
2:55 AM,28.4,23.2,81,29.89,10.0,Calm,Calm,-,N/A,,Overcast,0,2012-01-27 08:55:00
3:15 AM,29.7,23.9,79,29.88,10.0,NNW,4.6,-,N/A,,Overcast,330,2012-01-27 09:15:00
3:35 AM,28.8,23.0,79,29.87,10.0,NE,3.5,-,N/A,,Overcast,40,2012-01-27 09:35:00
3:55 AM,28.9,23.0,78,29.87,10.0,Calm,Calm,-,N/A,,Overcast,0,2012-01-27 09:55:00
4:15 AM,29.7,23.4,77,29.88,10.0,SW,6.9,-,N/A,,Overcast,220,2012-01-27 10:15:00
4:35 AM,30.2,24.1,78,29.87,10.0,Calm,Calm,-,N/A,,Overcast,0,2012-01-27 10:35:00
4:55 AM,30.4,24.4,79,29.85,10.0,East,3.5,-,N/A,,Mostly Cloudy,100,2012-01-27 10:55:00
5:15 AM,30.6,24.3,77,29.86,10.0,Calm,Calm,-,N/A,,Mostly Cloudy,0,2012-01-27 11:15:00
5:35 AM,30.7,24.4,77,29.86,10.0,Calm,Calm,-,N/A,,Overcast,0,2012-01-27 11:35:00
5:55 AM,30.7,24.8,79,29.88,10.0,South,3.5,-,N/A,,Overcast,190,2012-01-27 11:55:00
6:35 AM,30.7,24.4,77,29.87,10.0,SE,4.6,-,N/A,,Mostly Cloudy,130,2012-01-27 12:35:00
6:55 AM,32.0,24.3,73,29.86,10.0,ESE,8.1,-,N/A,,Scattered Clouds,120,2012-01-27 12:55:00
7:15 AM,32.4,24.3,72,29.86,10.0,ESE,8.1,-,N/A,,Mostly Cloudy,120,2012-01-27 13:15:00
7:35 AM,32.0,24.6,74,29.89,10.0,Calm,Calm,-,N/A,,Overcast,0,2012-01-27 13:35:00
7:55 AM,32.0,24.6,74,29.88,10.0,Calm,Calm,-,N/A,,Overcast,0,2012-01-27 13:55:00
8:15 AM,31.6,24.8,76,29.91,10.0,Calm,Calm,-,N/A,,Overcast,0,2012-01-27 14:15:00
8:35 AM,32.0,25.2,76,29.92,10.0,Calm,Calm,-,N/A,,Overcast,0,2012-01-27 14:35:00
8:55 AM,32.4,25.0,74,29.91,10.0,Calm,Calm,-,N/A,,Overcast,0,2012-01-27 14:55:00
9:15 AM,32.5,25.9,76,29.92,10.0,SSW,3.5,-,N/A,,Overcast,210,2012-01-27 15:15:00
9:35 AM,33.8,24.6,69,29.92,10.0,SSE,5.8,-,N/A,,Overcast,160,2012-01-27 15:35:00
9:55 AM,34.5,24.4,67,29.92,10.0,South,5.8,-,N/A,,Overcast,180,2012-01-27 15:55:00
10:35 AM,35.1,24.6,66,29.92,10.0,SSE,8.1,-,N/A,,Overcast,160,2012-01-27 16:35:00
10:55 AM,35.6,24.3,63,29.92,10.0,SSE,11.5,-,N/A,,Overcast,150,2012-01-27 16:55:00
11:35 AM,36.5,24.6,62,29.93,10.0,SW,8.1,-,N/A,,Overcast,220,2012-01-27 17:35:00
11:55 AM,37.8,25.3,61,29.93,10.0,SW,5.8,-,N/A,,Overcast,230,2012-01-27 17:55:00
12:15 PM,37.9,25.0,60,29.94,10.0,WSW,9.2,-,N/A,,Overcast,250,2012-01-27 18:15:00
12:35 PM,41.2,23.7,50,29.92,10.0,West,10.4,-,N/A,,Overcast,260,2012-01-27 18:35:00
12:55 PM,42.6,22.1,44,29.92,10.0,West,13.8,18.4,N/A,,Overcast,270,2012-01-27 18:55:00
1:15 PM,43.0,24.6,48,29.92,10.0,WNW,17.3,-,N/A,,Overcast,300,2012-01-27 19:15:00
1:35 PM,42.8,28.6,57,29.93,10.0,NW,16.1,23.0,N/A,,Overcast,320,2012-01-27 19:35:00
1:55 PM,41.9,29.1,61,29.94,10.0,NW,18.4,25.3,N/A,,Overcast,310,2012-01-27 19:55:00
2:15 PM,42.1,29.1,60,29.94,10.0,NW,16.1,21.9,N/A,,Overcast,310,2012-01-27 20:15:00
2:35 PM,42.6,28.2,57,29.94,10.0,NNW,17.3,-,N/A,,Overcast,330,2012-01-27 20:35:00
2:55 PM,43.2,27.5,54,29.95,10.0,NW,25.3,32.2,N/A,,Overcast,320,2012-01-27 20:55:00
3:15 PM,42.4,26.8,54,29.97,10.0,NW,25.3,35.7,N/A,,Mostly Cloudy,310,2012-01-27 21:15:00
3:35 PM,41.5,25.7,53,29.99,10.0,NW,29.9,34.5,N/A,,Mostly Cloudy,310,2012-01-27 21:35:00
3:55 PM,41.0,23.9,51,30.00,10.0,NW,26.5,38.0,N/A,,Scattered Clouds,320,2012-01-27 21:55:00
4:15 PM,39.4,23.9,54,30.01,10.0,NW,18.4,34.5,N/A,,Clear,320,2012-01-27 22:15:00
4:35 PM,38.5,23.2,54,30.02,10.0,NW,23.0,31.1,N/A,,Scattered Clouds,320,2012-01-27 22:35:00
4:55 PM,37.6,22.8,55,30.03,10.0,NW,20.7,25.3,N/A,,Mostly Cloudy,320,2012-01-27 22:55:00
5:15 PM,37.4,23.5,57,30.04,10.0,NW,16.1,-,N/A,,Scattered Clouds,320,2012-01-27 23:15:00
5:35 PM,36.1,21.2,55,30.06,10.0,NW,15.0,26.5,N/A,,Scattered Clouds,320,2012-01-27 23:35:00
5:55 PM,34.2,21.7,60,30.07,10.0,NW,13.8,-,N/A,,Clear,310,2012-01-27 23:55:00
6:15 PM,32.5,20.7,62,30.09,10.0,NW,15.0,-,N/A,,Clear,310,2012-01-28 00:15:00
6:35 PM,31.8,19.6,61,30.10,10.0,WNW,11.5,-,N/A,,Clear,300,2012-01-28 00:35:00
6:55 PM,29.5,18.9,65,30.11,10.0,WNW,9.2,-,N/A,,Clear,300,2012-01-28 00:55:00
7:15 PM,25.9,16.9,69,30.12,10.0,WNW,8.1,-,N/A,,Clear,290,2012-01-28 01:15:00
7:35 PM,26.6,18.0,70,30.13,10.0,NW,9.2,-,N/A,,Clear,310,2012-01-28 01:35:00
7:55 PM,26.4,17.4,69,30.13,10.0,WNW,9.2,-,N/A,,Clear,300,2012-01-28 01:55:00
8:15 PM,25.7,17.2,70,30.14,10.0,WNW,9.2,-,N/A,,Clear,290,2012-01-28 02:15:00
8:35 PM,24.6,16.9,72,30.14,10.0,West,8.1,-,N/A,,Clear,270,2012-01-28 02:35:00
8:55 PM,25.5,17.6,72,30.16,10.0,West,9.2,-,N/A,,Clear,280,2012-01-28 02:55:00
9:15 PM,23.9,16.7,74,30.16,10.0,West,8.1,-,N/A,,Clear,270,2012-01-28 03:15:00
9:35 PM,22.3,15.8,76,30.16,10.0,West,8.1,-,N/A,,Clear,280,2012-01-28 03:35:00
9:55 PM,19.6,13.8,78,30.16,10.0,West,6.9,-,N/A,,Clear,270,2012-01-28 03:55:00
10:15 PM,23.2,16.7,76,30.17,10.0,West,8.1,-,N/A,,Clear,270,2012-01-28 04:15:00
10:35 PM,27.1,18.1,69,30.17,10.0,West,10.4,-,N/A,,Clear,260,2012-01-28 04:35:00
10:55 PM,26.4,17.6,69,30.18,10.0,West,11.5,-,N/A,,Clear,260,2012-01-28 04:55:00
11:15 PM,25.5,17.1,70,30.19,10.0,West,11.5,-,N/A,,Clear,270,2012-01-28 05:15:00
11:35 PM,25.5,17.2,71,30.19,10.0,West,11.5,-,N/A,,Clear,270,2012-01-28 05:35:00
11:55 PM,25.0,16.9,71,30.19,10.0,West,12.7,-,N/A,,Clear,270,2012-01-28 05:55:00